Home > Weather > Weyhe > Past weeks

Flag for Germany Weather for the Past 2 Weeks in Weyhe, Lower Saxony, Germany

Now
39 °F

Clear.


Feels Like: 39 °F
Forecast: 48 / 72 °F
Wind: 1 mph from Southeast

Location: Bremen Airport

Current Time: May 5, 2016 at 7:01:07 AM

Latest Report: May 5, 2016 at 6:20 AM


Visibility: 10 mi

Pressure: 30.39 "Hg

Humidity: 81%

Dew Point: 34 °F

Location of WeyheLocation

Historic Weather in Weyhe — Graph

°F

Weyhe Temperature Yesterday

Maximum temperature yesterday: 59 °F (at 3:20 PM)
Minimum temperature yesterday: 36 °F (at 3:50 AM)
Average temperature yesterday: 48 °F

High & Low Weather Summary for the Past Weeks

 TemperatureHumidityPressure
High66 °F (May 2, 2:50 PM)100% (Apr 21, 4:20 AM)30.45 "Hg (Apr 21, 4:20 AM)
Low28 °F (Apr 25, 2:20 AM)33% (May 4, 5:20 PM)29.36 "Hg (Apr 26, 12:20 PM)
Average44 °F77%30.02 "Hg
* Reported Apr 20 5:20 AM — May 5 5:50 AM, Weyhe, Weather by CustomWeather, © 2016

Note: Actual official high and low records may vary slightly from our data, if they occured in-between our weather recording intervals... More about our weather records

Advertising

Weyhe Weather History for the Previous 24 Hours

Scroll right to see more
 ConditionsComfort  
Time TempWeatherWind HumidityBarometerVisibility
5:50 AM
Thu, May 5
39 °FClear.2 mph81%30.39 "Hg10 mi
5:20 AM39 °FClear.No wind87%30.39 "Hg10 mi
4:50 AM37 °FClear.2 mph87%30.39 "Hg10 mi
4:20 AM39 °FClear.1 mph81%30.39 "Hg10 mi
3:50 AM37 °FClear.2 mph87%30.39 "Hg10 mi
3:20 AM41 °FClear.2 mph81%30.39 "Hg10 mi
2:50 AM41 °FClear.5 mph87%30.39 "Hg10 mi
2:20 AM41 °FClear.No wind87%30.39 "Hg10 mi
1:50 AM41 °FClear.No wind81%30.39 "Hg10 mi
1:20 AM43 °FClear.No wind76%30.39 "Hg10 mi
12:50 AM43 °FClear.3 mph81%30.39 "Hg10 mi
12:20 AM45 °FClear.2 mph76%30.39 "Hg10 mi
11:50 PM
Wed, May 4
48 °FClear.5 mph66%30.39 "Hg10 mi
11:20 PM48 °FClear.6 mph66%30.39 "Hg10 mi
10:50 PM48 °FClear.7 mph62%30.39 "Hg10 mi
10:20 PM48 °FClear.6 mph66%30.39 "Hg10 mi
9:50 PM50 °FSunny.5 mph62%30.39 "Hg10 mi
9:20 PM52 °FSunny.6 mph58%30.39 "Hg10 mi
8:50 PM52 °FSunny.7 mph54%30.36 "Hg10 mi
8:20 PM55 °FPassing clouds.7 mph47%30.36 "HgN/A
7:50 PM57 °FPassing clouds.7 mph41%30.36 "HgN/A
7:20 PM59 °FPassing clouds.6 mph42%30.36 "HgN/A
6:50 PM59 °FPassing clouds.6 mph36%30.36 "HgN/A
6:20 PM59 °FSunny.2 mph36%30.36 "Hg10 mi
5:50 PM57 °FSunny.3 mph33%30.36 "Hg10 mi
5:20 PM57 °FSunny.1 mph33%30.36 "Hg10 mi
4:50 PM57 °FPassing clouds.6 mph36%30.39 "HgN/A
4:20 PM57 °FPassing clouds.5 mph41%30.39 "HgN/A
3:50 PM59 °FSunny.5 mph42%30.39 "Hg10 mi
3:20 PM59 °FPassing clouds.5 mph42%30.39 "HgN/A
2:50 PM55 °FScattered clouds.6 mph51%30.39 "HgN/A
2:20 PM55 °FPassing clouds.6 mph47%30.39 "HgN/A
1:50 PM55 °FScattered clouds.6 mph44%30.39 "HgN/A
1:20 PM57 °FScattered clouds.6 mph51%30.39 "HgN/A
12:50 PM54 °FScattered clouds.6 mph47%30.39 "HgN/A
12:20 PM54 °FPartly sunny.8 mph54%30.42 "HgN/A
11:50 AM52 °FPartly sunny.7 mph54%30.42 "HgN/A
11:20 AM54 °FPartly sunny.5 mph58%30.42 "HgN/A
10:50 AM52 °FScattered clouds.8 mph58%30.42 "HgN/A
10:20 AM52 °FPassing clouds.8 mph62%30.42 "HgN/A
9:50 AM50 °FPassing clouds.7 mph71%30.42 "HgN/A
9:20 AM48 °FPassing clouds.8 mph82%30.42 "HgN/A
8:50 AM46 °FPassing clouds.6 mph87%30.42 "HgN/A
8:20 AM45 °FClear.3 mph87%30.39 "Hg5 mi
7:50 AM41 °FClear.3 mph100%30.39 "Hg5 mi
7:20 AM39 °FFog.3 mph100%30.39 "Hg3 mi
Weather by CustomWeather, © 2016

See weather overviewHow to use our weather pages